Location: Eschentzwiller
(47.7125°N, 7.3981°E)
Time: 03:46:48
(UTC+00:00)

Atlas Centaur 2 - Pass Details

Date: 27 October 2020
Orbit: 459 x 1309 km, 30.4° (Epoch: 01 December)

Event Time Altitude Azimuth Distance (km) Brightness Sun altitude
Rises 19:09:33 0° 242° (WSW) 4,259 6.5 -29.0°
Reaches altitude 10° 19:13:12 10° 229° (SW) 3,318 5.6 -29.6°
Maximum altitude 19:19:23 23° 182° (S) 2,460 4.4 -30.6°
Enters shadow 19:19:41 23° 179° (S) 2,459 4.4 -30.6°
